Wind_Speed
20 19 20 20 17 17 20 19 17 16 16 15 14 15 16 13 7 3 4 6 12 18 21 22 22 25 26 26 24 24 23 22 20 19 19 17 16 16 15 15 14 13 13 13 13 12 12 12 12 12 13 13 13 13 14 14 13 12 11 10 9 8 7 7 7 6 5 6 7 8 9 10 11 11
21 20 21 22 20 18 21 21 18 17 18 18 19 18 19 19 15 10 6 6 13 18 21 23 23 23 25 26 26 27 27 25 23 22 22 20 17 16 16 16 16 15 14 14 14 14 13 13 12 12 13 13 13 14 14 15 14 12 11 10 9 8 8 7 7 6 6 6 7 8 10 10 11 11
22 22 22 24 24 21 22 23 21 19 20 21 22 21 20 22 22 19 12 5 12 19 21 23 24 23 23 24 25 28 29 28 26 24 24 22 19 17 17 17 17 16 15 14 14 14 14 14 13 13 13 13 14 14 14 14 14 13 12 11 10 10 9 9 8 7 7 7 8 9 10 10 11 11
25 25 24 26 28 26 25 26 24 22 21 21 22 23 23 23 23 24 19 10 12 19 19 20 22 22 22 23 24 26 29 30 29 27 26 23 21 19 19 19 18 18 17 15 15 15 15 15 15 14 14 13 13 14 14 14 13 13 12 12 12 11 10 10 9 8 8 9 10 10 10 11 11 10
27 27 27 26 28 29 29 29 27 25 23 22 21 22 24 25 25 24 23 17 16 19 20 18 19 20 21 23 24 24 27 30 30 28 27 25 23 22 21 20 19 19 19 17 17 17 17 17 16 15 14 13 13 13 13 13 13 12 12 12 12 12 12 11 10 10 9 10 10 11 11 11 11 11
30 30 30 28 27 28 31 32 31 30 27 24 22 22 24 27 27 26 26 23 18 20 23 22 20 20 21 22 24 25 27 29 29 29 28 26 25 24 22 21 21 20 20 20 19 19 19 18 17 16 15 14 14 13 13 13 13 12 12 12 13 13 13 12 11 11 11 11 11 12 12 13 13 13
33 32 32 32 29 28 30 32 33 33 31 28 26 25 26 27 27 27 27 26 22 22 24 24 22 22 22 22 23 24 27 28 29 30 29 27 26 25 24 23 22 20 20 21 21 21 20 18 17 16 16 16 15 14 14 13 13 12 12 12 12 13 13 12 12 12 12 12 11 12 13 14 14 14
35 35 35 35 33 31 31 32 33 34 34 33 31 28 27 28 29 29 28 28 27 25 24 25 25 24 23 23 21 23 26 29 30 30 29 28 27 26 26 25 23 21 20 21 23 22 20 18 17 17 17 17 16 15 14 14 13 12 11 11 11 12 13 13 13 13 13 12 11 12 14 15 16 16
38 37 38 37 35 34 34 33 33 34 35 35 34 32 30 30 30 30 29 30 29 27 26 27 27 24 23 23 21 22 26 29 30 30 30 28 28 28 28 27 25 23 21 21 21 21 20 19 18 18 18 18 17 16 15 15 14 12 12 11 12 12 13 13 13 14 13 12 11 12 14 16 17 18
39 39 39 39 37 36 36 36 36 35 36 36 35 35 34 32 31 30 31 30 30 30 30 30 28 27 25 24 23 23 26 29 30 31 31 30 30 30 30 29 27 25 23 22 21 20 19 19 18 18 19 19 18 17 16 16 15 14 14 13 13 13 13 13 14 14 14 12 11 13 15 17 19 18
40 40 40 39 38 37 38 38 38 37 36 36 36 37 37 35 33 32 32 31 31 31 31 30 29 29 29 27 26 25 25 28 30 31 31 31 32 33 32 30 28 26 25 23 22 21 20 19 18 18 19 20 19 19 18 17 16 16 16 15 15 14 14 14 15 15 14 12 12 14 16 18 18 15
39 39 39 39 39 39 40 40 39 39 38 37 37 37 38 37 35 33 32 32 31 31 30 29 29 29 28 29 28 25 24 26 31 33 33 32 32 33 33 31 28 27 26 25 24 23 23 22 21 20 20 21 20 20 19 18 18 18 17 16 15 15 15 15 16 16 14 13 13 14 16 17 16 13
40 39 38 39 40 40 41 41 40 40 39 38 38 38 38 37 36 35 33 32 31 30 28 29 28 25 26 28 28 26 28 30 32 33 32 31 31 31 31 32 30 28 27 27 27 26 25 26 25 24 23 22 22 21 21 20 20 19 18 16 16 15 15 15 16 16 14 13 13 14 15 15 14 12
39 39 39 39 40 41 41 41 41 41 41 40 40 40 39 38 37 36 34 34 33 29 27 28 27 24 25 29 30 30 33 34 32 30 30 31 31 27 25 27 30 30 29 29 30 29 28 28 27 26 26 24 23 23 22 22 21 19 17 16 16 16 16 16 15 15 14 12 12 13 13 12 11 10
39 39 39 39 39 40 41 42 42 42 43 43 43 42 42 41 40 38 37 36 35 31 29 30 28 25 28 32 32 32 33 32 32 31 31 31 29 24 21 21 24 30 32 32 32 32 31 29 29 28 28 26 25 24 23 23 21 19 17 16 16 16 16 15 14 14 13 11 11 11 10 9 7 6
38 38 38 38 38 39 40 42 43 43 44 45 45 45 44 44 43 42 41 40 37 34 32 31 30 30 32 33 33 34 35 34 34 33 32 32 30 28 26 24 25 29 32 32 32 33 32 30 30 30 29 28 26 25 23 22 21 19 18 16 16 17 16 15 14 13 11 9 9 9 7 3 1 1
38 38 37 37 38 39 40 41 42 43 44 45 46 46 46 45 45 45 46 46 42 39 36 34 35 37 36 36 37 39 38 35 34 32 32 33 32 31 31 33 35 34 31 30 31 32 33 32 31 31 30 28 27 25 23 22 20 20 19 18 17 17 16 14 13 13 10 8 7 5 3 1 2 3
38 39 38 37 38 38 38 39 40 41 43 43 44 45 46 47 48 48 49 49 47 44 41 39 41 43 41 41 44 43 38 35 36 36 35 36 35 36 38 40 41 37 34 32 29 28 31 32 31 32 31 29 28 26 24 22 21 20 20 19 18 18 16 14 13 12 9 7 5 4 3 2 1 2
39 39 39 38 39 38 37 37 38 40 41 41 42 43 45 47 49 50 50 50 49 49 48 47 48 49 46 45 46 44 38 38 40 39 39 39 38 38 39 38 36 35 35 34 29 25 29 32 32 32 32 30 29 27 24 22 21 21 21 21 20 18 16 14 14 12 9 7 6 5 5 4 3 2
39 39 39 39 39 38 38 38 38 39 39 40 40 41 43 45 47 50 51 50 51 52 52 52 53 53 51 48 48 45 41 40 40 38 38 35 32 31 31 30 32 34 34 36 35 28 27 30 32 33 32 31 30 28 26 24 22 22 22 21 20 19 16 15 15 12 10 8 7 6 7 6 6 6
40 39 40 39 39 39 39 39 39 39 39 40 40 41 42 42 45 48 47 46 49 52 54 55 55 56 55 52 50 47 45 43 40 36 34 31 30 29 25 23 27 31 33 37 39 33 27 29 32 32 31 31 31 29 27 26 24 23 23 22 21 19 17 16 16 13 11 9 8 7 8 8 8 9
40 39 40 40 39 40 40 39 40 39 39 40 41 40 39 40 44 45 41 39 44 48 50 53 54 56 57 55 53 50 49 47 43 40 38 35 33 31 26 23 24 26 30 37 38 32 27 28 30 28 25 25 29 29 27 26 26 24 23 23 21 19 17 16 16 14 12 10 9 8 9 9 9 10
40 39 39 39 41 42 42 41 41 40 40 41 42 41 39 39 44 42 36 37 42 42 44 48 50 54 57 56 55 54 52 49 47 46 45 40 36 33 31 29 22 16 22 34 37 32 27 26 29 27 18 12 18 27 28 26 27 27 25 25 23 20 18 17 17 16 14 12 10 10 10 10 10 10
38 38 38 39 40 42 42 43 43 43 43 43 43 42 40 41 45 42 37 39 42 42 43 46 47 49 52 52 53 54 52 49 48 49 49 46 42 39 36 34 28 21 23 30 35 35 29 25 28 30 23 12 10 20 28 28 28 28 27 26 25 22 20 19 18 18 17 14 12 11 11 11 11 11
36 36 37 38 39 41 42 43 43 44 45 45 45 45 45 46 48 45 40 41 41 41 44 45 44 46 47 45 46 47 48 49 49 49 51 50 48 46 43 38 34 32 31 30 32 37 33 27 27 30 28 20 14 17 25 29 29 29 28 26 25 23 21 21 21 21 19 16 14 13 12 12 12 11
35 35 36 38 39 40 41 42 43 43 44 44 46 47 48 49 49 47 46 45 42 39 40 39 40 43 43 41 41 42 44 47 47 48 51 52 52 52 53 48 41 38 38 34 34 37 36 32 31 31 28 23 18 18 23 25 27 29 28 26 25 24 22 23 23 22 20 18 16 15 13 13 13 12
35 36 37 38 38 39 40 41 41 42 41 42 44 46 47 48 49 49 49 47 43 39 37 36 37 40 41 39 38 39 41 43 44 46 50 52 54 56 57 54 48 43 41 37 34 37 39 37 36 36 34 29 22 18 19 21 23 27 29 27 26 25 24 24 23 22 20 19 18 16 15 14 14 13
34 34 33 33 33 34 36 37 38 39 40 40 41 43 44 45 47 48 48 47 43 39 37 36 37 40 40 39 37 39 40 40 42 46 49 52 56 57 53 49 44 40 39 37 35 38 41 41 39 39 40 36 28 22 21 21 23 27 29 28 26 25 25 24 23 21 20 19 18 16 15 15 14 14
31 29 29 28 28 29 31 32 33 35 37 37 38 40 40 41 44 46 46 43 39 37 36 37 38 40 42 41 39 36 35 36 38 42 46 49 51 48 41 37 38 39 39 40 40 41 44 45 44 42 41 41 37 32 28 25 25 28 30 29 27 27 27 25 23 22 21 19 18 17 16 15 15 15
32 30 28 26 25 24 24 24 26 29 31 32 33 35 36 37 40 42 42 39 37 36 37 38 39 42 44 42 34 29 31 36 40 42 44 45 43 37 32 30 34 41 46 47 47 47 48 48 47 44 42 41 39 37 34 30 27 28 31 32 28 25 25 25 24 22 22 20 19 17 17 16 16 15
33 32 29 28 27 27 27 27 28 29 30 30 31 32 33 33 35 37 38 37 37 38 38 39 39 41 41 36 26 24 33 43 46 45 44 42 36 31 31 32 36 44 50 51 49 49 50 50 49 47 44 41 37 36 37 35 32 30 31 33 30 24 24 26 26 23 21 20 19 18 17 16 16 14
23 24 24 23 24 25 26 26 27 27 27 28 29 30 30 31 31 33 34 35 37 38 39 39 39 39 39 34 25 25 34 42 45 43 42 40 35 32 33 35 36 40 43 45 46 48 50 51 51 49 47 44 41 39 37 34 34 33 32 33 32 27 24 25 26 23 21 19 18 18 17 15 14 14
10 11 11 11 12 12 14 16 18 19 21 23 24 25 25 26 27 29 30 31 34 36 36 37 37 36 36 34 29 27 33 39 44 45 43 41 38 35 36 36 36 37 38 40 43 44 45 48 51 50 48 46 45 44 39 32 30 33 33 32 32 29 24 23 23 22 20 19 18 17 17 14 13 15
5 6 6 7 8 9 10 12 14 16 18 20 22 24 24 24 26 27 28 30 32 33 34 35 36 36 35 35 33 30 32 37 42 44 44 42 39 37 36 36 37 39 40 40 41 43 42 42 42 40 40 41 41 43 44 38 33 32 32 31 32 32 28 25 23 21 20 20 19 17 16 14 14 16
1 2 4 5 7 8 9 11 13 15 17 19 22 24 26 27 27 28 29 30 32 33 34 35 36 35 35 36 35 34 34 36 38 40 41 40 40 39 39 38 37 39 40 39 39 41 39 38 38 33 29 29 28 29 36 40 37 33 33 31 30 30 28 24 23 22 19 19 19 17 15 15 15 16
9 9 9 9 10 10 11 12 13 15 17 19 20 22 24 26 28 29 31 33 33 34 35 35 35 35 36 36 37 36 36 36 36 37 37 38 39 40 41 41 41 41 41 40 40 40 40 42 44 36 23 16 14 13 21 31 32 30 32 33 29 27 26 24 22 22 20 19 19 17 15 16 18 16
13 11 10 10 10 10 11 12 13 15 15 16 18 19 20 23 26 29 31 33 34 34 35 36 36 37 37 37 37 37 37 36 36 36 36 36 38 38 39 39 39 39 40 40 40 42 42 42 43 37 23 12 10 10 14 23 26 25 28 31 29 26 24 23 22 22 21 21 20 17 16 18 18 14
13 11 10 10 9 10 10 11 12 13 14 15 16 18 20 23 26 28 30 30 31 33 34 35 36 37 37 37 36 36 36 36 34 35 35 35 35 35 35 35 36 36 39 39 39 43 45 43 43 41 30 16 11 10 11 17 24 27 27 26 26 25 23 22 23 24 22 21 19 17 17 18 16 12
13 12 12 11 11 11 11 12 13 14 15 17 19 20 22 24 26 28 29 30 31 33 34 34 36 37 38 38 38 37 36 34 33 33 33 33 34 34 33 33 32 33 34 35 35 40 43 43 43 46 42 30 24 25 26 25 27 32 30 25 23 23 22 23 24 23 22 22 20 18 18 18 14 11
13 13 12 11 11 12 13 14 15 15 16 18 19 20 21 23 25 27 29 30 32 33 33 34 36 37 38 38 38 37 36 34 32 32 33 32 33 35 34 33 34 34 33 31 31 36 42 45 48 52 49 39 33 34 34 28 24 26 26 23 21 20 20 21 23 23 22 22 21 19 19 18 15 13
12 11 11 12 12 13 13 13 13 13 14 16 17 19 20 22 23 25 26 28 30 30 31 32 34 36 36 36 36 35 34 31 29 30 30 30 31 33 33 32 32 29 24 22 26 35 43 48 49 48 42 36 33 30 24 17 15 18 20 19 17 18 20 20 19 21 23 23 21 20 19 17 14 13
10 11 12 12 12 12 12 11 10 11 13 14 15 17 19 20 20 22 23 25 26 27 28 29 31 31 32 32 32 31 32 31 29 29 29 28 26 25 25 29 31 30 28 28 32 38 40 39 39 37 35 36 36 28 15 10 13 17 18 17 16 18 21 18 15 17 20 21 20 20 18 13 9 9
10 11 11 11 11 10 9 9 8 9 11 13 14 16 18 19 19 20 22 23 25 27 28 28 27 27 26 25 23 21 22 24 25 25 26 25 19 12 9 10 14 16 18 21 26 31 34 34 34 35 34 32 30 24 18 17 19 20 18 17 16 17 18 16 14 16 18 19 20 19 17 14 9 8
8 8 8 8 8 7 7 7 7 8 9 11 13 15 16 18 19 20 22 23 24 26 28 28 26 25 25 24 21 19 16 13 12 13 16 17 14 7 9 13 16 17 17 15 14 19 27 32 33 33 31 26 24 26 24 22 21 21 20 20 19 19 19 18 17 18 19 20 21 20 20 19 16 14
4 4 5 5 5 5 6 6 7 7 8 10 13 14 15 17 19 20 21 22 23 23 25 25 25 26 27 29 27 26 26 25 22 20 16 10 8 15 22 28 32 34 35 33 28 25 26 28 28 28 25 22 21 24 25 23 22 22 21 20 20 20 19 17 16 17 17 18 18 18 18 19 19 19
Wind_Direction
224 222 217 218 221 217 215 217 216 219 226 229 233 236 227 211 191 192 232 239 231 225 224 228 233 234 234 238 241 242 243 243 239 237 238 240 242 243 245 246 247 250 253 255 255 256 259 263 265 268 269 272 276 279 282 287 290 288 289 293 295 296 297 294 288 286 294 303 306 307 306 308 312 314
223 225 222 220 221 219 216 218 219 222 227 231 233 237 238 232 218 201 200 237 238 229 227 231 235 237 237 238 242 243 244 244 241 240 240 241 243 245 245 246 248 251 255 257 257 257 260 264 266 267 267 267 269 272 276 281 285 285 287 291 292 293 295 294 290 292 304 312 312 310 311 314 317 318
223 225 227 223 221 220 218 220 224 228 231 236 238 238 238 237 233 223 209 223 245 235 232 236 238 241 242 241 243 244 245 244 242 241 240 241 245 246 244 246 247 250 254 256 256 258 260 263 266 267 266 264 263 264 269 275 279 283 287 290 289 288 289 289 289 296 306 312 314 314 314 316 317 318
224 226 229 227 223 220 219 222 227 230 232 236 241 242 239 235 235 231 219 217 246 243 239 243 244 244 245 245 245 246 245 242 239 239 239 241 245 246 245 246 246 247 250 251 255 258 259 262 265 266 265 263 261 261 264 268 274 279 284 286 284 283 283 285 288 293 302 310 313 315 315 315 314 314
224 226 229 230 227 223 222 224 227 230 233 236 240 242 239 233 231 229 223 222 242 249 246 247 247 246 246 246 246 247 245 239 235 236 237 239 243 246 248 248 247 247 248 248 252 255 258 261 262 262 261 259 258 258 259 262 266 273 279 281 280 278 278 280 284 289 297 304 309 314 316 315 314 313
225 226 228 230 230 227 226 226 228 230 233 235 238 238 235 232 230 228 226 225 233 247 249 246 244 245 245 245 245 246 244 238 234 232 234 236 240 244 248 250 250 250 250 250 251 252 257 260 258 254 253 253 253 252 252 255 260 268 275 277 276 275 275 278 280 285 291 298 306 313 315 314 310 308
225 225 227 229 229 228 229 229 229 231 233 235 237 237 233 231 231 230 229 230 232 243 250 249 244 241 243 245 245 245 243 239 234 233 234 238 240 242 245 248 250 251 252 252 251 251 253 253 250 249 251 252 251 250 250 253 260 268 274 276 275 273 274 274 276 280 286 295 304 309 310 308 305 304
226 225 227 229 229 228 229 231 231 231 233 235 237 238 236 234 235 234 232 234 237 241 249 252 249 244 243 245 245 244 240 235 233 234 237 241 243 244 244 246 247 248 250 253 252 251 248 244 243 247 249 250 250 251 252 255 261 268 271 274 275 273 271 270 272 276 282 291 299 301 302 301 300 303
226 226 228 230 229 227 228 231 232 232 232 234 236 238 239 238 238 238 237 238 239 241 245 251 253 250 246 245 244 241 237 233 233 235 239 242 244 244 245 246 246 246 246 249 249 247 243 241 245 248 248 248 250 251 253 256 261 265 267 269 271 269 265 264 267 272 278 286 291 294 297 298 301 304
228 228 230 231 229 227 228 230 232 233 233 234 235 237 239 240 240 239 239 240 240 241 243 248 251 250 248 245 242 238 236 235 236 236 238 241 242 242 243 245 245 244 244 245 244 243 242 245 248 250 250 250 251 251 252 253 256 259 262 264 264 262 259 258 262 267 273 280 287 292 295 297 301 304
230 230 231 232 230 229 230 231 232 233 234 234 235 236 238 240 240 240 240 240 240 240 243 245 247 247 247 246 244 241 239 238 239 238 236 236 236 236 239 241 242 243 244 244 244 244 246 250 251 251 253 253 252 251 250 250 252 255 259 260 258 255 252 252 256 261 268 276 285 291 295 297 300 302
232 232 233 233 233 232 233 234 234 234 235 235 235 236 237 238 240 240 240 239 238 239 241 244 246 246 246 245 244 243 237 233 235 234 232 233 234 234 235 238 240 242 243 244 245 245 246 248 249 249 249 248 248 248 247 247 249 252 255 255 252 247 246 247 250 256 264 273 285 293 296 297 298 300
234 234 234 235 236 236 237 237 237 237 237 237 236 237 236 235 236 238 239 238 237 236 238 242 244 244 244 242 239 236 232 230 233 233 231 233 237 237 237 237 238 240 243 244 244 244 244 245 248 250 247 244 243 243 242 243 244 248 251 248 244 242 243 245 248 253 261 271 284 294 295 294 295 298
235 235 236 237 238 239 240 240 240 240 240 240 241 241 239 235 233 233 234 236 236 235 236 239 239 238 241 241 237 235 236 235 236 235 231 232 236 236 237 239 239 239 240 240 241 242 242 243 246 249 248 247 245 243 240 239 241 247 247 241 240 242 243 244 247 250 258 269 283 293 292 289 291 294
235 236 237 238 239 239 240 242 242 243 242 242 243 244 243 241 237 234 232 234 234 233 234 238 237 234 239 242 239 237 239 238 236 235 232 232 231 227 229 237 239 238 236 235 237 241 241 240 241 245 247 247 247 245 242 238 239 243 241 236 237 242 242 242 244 247 253 267 285 292 288 285 287 292
234 236 237 238 239 239 240 241 242 243 244 244 245 245 245 244 243 241 239 237 235 232 233 236 235 233 238 242 240 237 237 236 235 234 232 230 227 223 224 228 234 239 237 230 232 239 239 236 237 240 243 243 244 245 243 239 238 238 236 235 238 239 239 237 237 239 248 265 284 287 280 276 306 3
235 236 237 238 239 240 240 241 241 242 244 245 246 246 246 245 245 245 245 245 242 239 236 236 237 237 237 240 241 240 237 233 231 231 230 229 226 223 225 229 235 240 237 226 225 234 237 234 233 235 237 239 239 240 240 238 236 234 233 235 237 235 231 230 231 234 241 259 274 273 256 143 87 76
237 237 237 238 239 240 240 240 241 241 243 244 245 245 245 244 244 245 245 246 246 244 241 240 243 245 242 242 246 246 240 234 231 230 230 230 228 227 231 236 238 239 236 227 223 229 235 233 229 231 235 236 235 236 237 234 230 228 230 233 233 230 227 226 228 230 234 249 260 241 201 170 126 79
239 239 239 240 241 242 242 241 241 241 242 243 244 244 244 245 245 245 244 244 244 244 243 243 246 249 247 247 249 249 244 240 239 237 237 237 235 234 237 240 239 237 235 229 222 225 233 230 226 229 234 234 233 234 233 229 225 225 228 230 227 224 224 225 225 226 230 242 244 225 213 220 229 246
240 241 241 241 242 243 244 244 243 244 243 242 242 243 244 246 246 247 246 246 246 246 246 246 248 250 251 250 251 250 247 245 244 241 240 240 236 235 238 239 236 234 233 228 222 224 231 228 224 228 232 231 231 231 228 223 220 222 223 222 221 220 221 224 223 222 230 238 236 227 228 233 238 251
241 242 242 242 243 244 245 245 245 245 243 242 241 242 244 246 247 248 248 247 248 249 249 249 250 252 253 251 251 251 249 248 245 238 234 233 229 229 233 236 235 232 229 226 221 222 227 225 222 225 228 229 229 228 224 219 218 220 219 217 217 217 219 222 221 220 229 233 232 233 235 235 241 255
242 243 243 244 244 245 246 247 247 246 243 242 242 242 244 246 248 249 248 247 249 251 251 252 251 252 253 252 251 251 250 249 245 236 233 232 228 227 231 235 239 238 234 228 220 219 225 223 218 218 221 225 228 225 220 217 216 218 216 213 215 216 218 220 219 221 229 230 230 239 239 235 242 255
243 244 245 245 245 247 248 248 248 247 245 243 243 243 243 246 249 251 249 248 250 250 250 251 250 251 252 251 250 250 249 247 243 239 238 236 229 227 231 233 235 238 238 230 219 215 223 222 214 211 207 213 226 223 218 216 216 216 213 211 213 215 216 218 218 221 228 230 230 238 238 234 240 252
243 244 245 246 247 248 249 250 250 249 247 245 245 243 242 244 251 255 254 252 251 249 249 250 250 251 252 250 248 248 246 245 242 240 239 237 231 230 231 230 228 229 237 231 217 213 220 220 213 211 208 207 215 213 213 215 215 215 214 212 212 213 213 215 217 221 225 227 231 237 237 233 238 248
241 243 245 246 248 249 250 251 251 251 250 248 247 245 244 248 254 257 257 256 255 251 250 250 251 252 252 250 247 246 244 243 241 239 238 237 234 232 231 228 227 228 235 234 220 213 214 215 211 209 210 215 212 201 206 212 214 213 214 215 214 213 212 214 217 221 225 227 230 234 234 233 237 244
241 243 245 247 248 250 251 253 253 253 253 251 249 249 250 253 255 256 257 258 258 255 252 251 251 252 252 250 247 245 243 242 241 239 238 237 235 234 233 231 227 227 231 232 224 214 211 211 210 205 204 211 212 200 198 206 212 214 215 216 215 213 212 213 215 221 225 227 230 233 234 237 241 243
242 245 247 249 250 251 253 255 256 257 257 255 254 255 257 257 257 257 257 257 258 258 257 254 252 253 253 251 248 246 244 244 242 241 240 239 237 236 235 233 231 231 232 232 226 217 213 213 212 208 205 204 201 196 196 199 206 211 212 212 212 212 211 210 213 220 225 227 232 235 235 236 237 240
244 246 248 250 251 253 255 257 258 260 260 259 260 261 262 262 260 258 256 256 257 257 257 255 254 255 255 253 251 250 249 248 247 245 243 242 240 238 236 234 232 233 234 235 231 221 215 214 214 213 211 205 197 195 199 197 200 205 206 206 208 209 209 207 210 217 222 225 229 229 229 232 235 241
244 246 248 250 252 254 256 258 259 260 260 261 263 265 266 266 263 259 257 257 258 258 256 256 256 257 258 256 253 252 254 254 253 249 247 246 244 240 237 233 230 229 231 234 232 226 219 217 216 214 212 208 204 201 198 195 198 202 202 202 204 207 207 207 209 211 212 216 222 225 229 235 239 245
244 244 246 249 252 256 259 262 263 264 266 267 267 268 269 269 267 264 261 259 259 259 258 258 258 259 261 260 254 250 253 254 252 250 248 247 246 240 231 225 223 225 227 229 229 225 220 218 218 215 210 208 207 205 199 194 194 199 201 201 199 199 204 206 203 203 206 212 220 229 235 237 239 245
252 252 253 255 258 262 265 267 268 271 274 275 276 277 277 277 276 275 272 267 264 264 264 265 266 266 268 268 256 243 246 250 250 249 247 245 243 234 220 215 217 221 225 226 226 224 220 216 215 214 209 203 203 206 204 198 193 194 198 200 198 195 198 201 200 201 208 216 224 230 234 234 236 238
257 259 260 261 263 265 267 270 273 277 281 283 286 288 290 291 290 288 286 280 274 273 272 273 274 274 275 274 263 244 242 245 248 248 246 242 238 225 212 210 214 218 221 223 224 223 219 215 214 214 210 205 203 204 201 197 196 196 195 198 200 199 198 199 202 204 207 212 218 221 224 231 236 229
251 259 267 274 281 286 290 293 296 299 300 299 299 300 300 301 299 296 292 286 282 281 280 278 278 278 278 277 270 252 242 244 248 248 245 240 235 223 212 212 216 216 216 219 219 218 215 212 211 211 210 209 209 205 196 191 194 197 196 196 197 199 200 200 199 198 199 202 209 214 219 229 232 223
262 278 292 309 319 325 330 330 327 326 324 320 317 315 314 311 307 303 297 293 290 289 287 283 282 281 278 276 271 259 247 246 249 248 243 238 231 221 215 217 219 217 217 217 215 212 209 204 201 202 204 205 206 206 202 197 193 193 196 197 196 196 200 203 204 203 203 205 208 211 219 229 226 219
104 48 36 28 17 7 360 353 344 337 332 328 323 321 319 316 313 308 303 299 297 294 291 287 284 282 278 275 272 264 255 250 249 247 242 236 229 222 219 219 220 218 216 214 211 206 199 189 183 183 187 190 192 199 205 205 199 192 190 193 197 198 197 202 211 213 207 203 205 209 218 226 221 216
84 69 58 47 31 15 3 354 345 336 330 326 321 317 314 312 311 308 305 303 300 296 292 289 286 283 280 275 272 268 262 255 250 246 242 235 228 225 223 222 221 217 214 213 208 199 190 184 179 173 169 173 177 187 202 205 203 198 191 188 194 199 197 198 209 212 204 199 202 208 216 219 215 219
78 67 55 45 29 12 0 350 341 334 327 322 316 312 308 306 307 308 308 307 303 298 295 292 288 285 282 278 275 272 267 261 254 249 245 239 232 227 224 223 221 215 212 212 206 195 187 183 178 172 167 170 179 186 192 191 192 196 193 188 189 195 195 197 206 209 202 199 202 208 213 214 216 228
73 65 54 43 27 12 2 352 342 334 328 325 323 321 318 316 315 315 315 313 309 305 302 297 292 288 285 280 277 273 270 266 260 253 247 242 237 232 227 223 220 214 210 208 201 191 186 183 179 177 176 175 178 182 177 174 180 188 192 189 189 190 193 198 205 204 198 198 204 209 211 214 224 240
68 61 51 40 27 15 6 359 354 347 343 342 339 334 330 326 325 324 323 321 318 314 309 302 296 292 287 281 276 272 269 267 265 261 255 246 241 238 233 227 221 214 209 204 195 187 185 186 185 183 182 183 187 184 173 169 179 185 187 189 192 192 194 200 203 200 197 199 204 207 211 220 232 240
69 62 52 40 29 20 13 10 6 1 357 352 346 340 336 333 331 330 329 326 324 321 316 310 304 299 292 284 277 273 268 264 263 265 263 256 249 246 241 232 223 216 209 199 187 182 186 190 190 188 186 186 186 178 167 160 163 172 180 190 196 196 200 204 203 198 198 201 204 208 212 218 226 231
74 66 54 43 35 27 23 20 15 9 3 357 351 348 346 343 340 337 334 331 329 326 322 319 316 310 301 292 283 275 270 267 266 268 269 267 264 256 246 234 226 218 208 194 185 185 189 191 190 187 181 173 165 159 155 146 142 153 166 176 185 198 212 216 210 202 202 204 206 207 210 214 223 233
74 66 55 46 39 35 32 29 22 13 8 3 358 355 352 350 349 347 343 341 340 337 332 329 328 324 316 307 296 283 274 270 267 267 268 271 275 272 255 238 228 218 204 195 192 190 187 184 178 170 157 149 148 147 141 131 132 137 143 150 169 197 210 212 208 205 208 211 208 205 205 206 210 220
73 66 57 49 45 45 42 37 27 16 10 5 1 356 352 350 349 349 347 346 347 348 347 344 344 345 344 339 328 312 295 283 275 272 270 268 269 279 273 249 236 224 207 195 186 177 167 161 157 149 138 135 138 134 125 127 133 134 141 158 177 189 190 189 195 204 213 220 220 218 219 219 211 214
74 67 61 55 52 49 41 31 22 11 3 0 357 354 352 351 349 348 347 346 345 348 352 355 359 7 16 18 17 13 6 349 326 310 292 269 244 197 125 107 95 84 80 85 105 126 132 133 136 133 128 128 131 128 126 133 140 146 159 175 184 184 182 187 198 206 214 222 224 226 232 235 233 235
82 72 69 62 53 42 32 24 16 6 2 2 360 356 356 356 355 354 355 354 352 352 355 0 7 20 35 43 42 41 44 47 46 44 42 50 92 105 104 104 101 96 92 89 85 85 93 104 115 122 122 121 126 132 139 147 152 159 170 180 185 186 186 191 200 207 214 219 218 219 226 229 230 236
Height
848 849 849 850 850 850 851 852 852 853 853 854 854 854 854 856 858 861 861 858 855 855 856 855 855 856 856 857 857 858 858 858 859 860 860 860 860 861 861 861 861 861 861 861 862 862 862 862 862 862 862 862 863 863 862 862 862 862 862 862 861 861 860 860 859 859 858 857 857 857 856 856 855 854
847 847 848 848 849 849 850 850 851 851 852 852 852 853 853 853 854 856 858 856 853 853 854 853 853 854 854 855 855 855 855 856 857 857 857 858 858 859 859 859 859 859 860 860 860 860 860 860 860 860 860 861 861 861 861 861 861 861 861 860 860 859 859 858 858 857 857 856 856 856 855 855 854 853
845 845 846 846 846 847 848 848 849 849 850 850 851 851 851 852 852 852 854 854 851 850 851 851 851 852 852 853 853 853 853 854 854 855 855 855 856 857 857 857 857 857 858 858 858 858 858 858 858 858 859 859 859 859 860 860 860 860 860 859 859 858 857 857 856 856 856 855 855 855 854 854 853 852
843 843 844 844 844 845 846 846 847 847 848 848 848 849 849 849 850 850 851 851 848 847 848 849 849 850 850 850 850 850 850 851 852 852 853 853 854 854 855 855 855 855 855 856 856 856 856 856 856 856 857 857 857 857 857 858 858 858 858 858 857 857 856 855 855 854 854 854 853 853 853 852 852 851
840 841 841 841 842 843 844 844 845 845 846 846 846 846 847 846 847 848 848 848 846 846 847 847 847 848 848 848 847 847 847 848 849 850 850 851 852 852 852 852 852 852 853 853 853 853 854 854 854 854 854 855 855 855 855 856 856 856 856 856 856 855 855 854 854 853 853 852 852 851 851 851 850 849
837 838 838 839 840 841 841 842 842 843 843 844 844 844 844 844 844 845 845 845 845 844 843 844 845 845 845 845 844 845 844 845 846 847 848 848 849 849 849 849 849 849 850 850 850 851 851 851 852 852 852 852 852 853 853 853 854 854 854 854 854 853 853 853 852 852 851 851 850 850 850 849 849 848
834 835 835 836 837 838 839 839 839 840 841 841 841 842 842 842 842 843 843 843 842 841 840 841 842 842 842 842 842 842 842 843 844 844 845 845 846 846 846 846 847 847 847 847 847 847 848 849 849 850 850 850 850 851 851 851 851 851 852 852 852 851 851 851 851 850 850 849 849 848 848 848 847 846
830 831 832 832 833 835 836 836 837 837 838 839 839 839 840 840 840 841 841 840 840 839 838 838 839 840 840 840 840 840 841 841 842 842 842 843 843 843 843 843 843 844 844 844 844 844 845 846 846 847 848 848 848 849 849 849 849 849 849 849 849 849 849 850 849 849 848 848 847 847 847 846 845 845
826 827 827 828 830 832 833 833 834 834 835 836 836 837 837 838 838 838 838 838 838 838 836 835 836 838 838 838 838 839 839 839 840 840 840 840 840 840 841 840 841 841 842 842 842 842 843 843 844 845 845 846 846 846 847 847 847 847 847 847 847 847 847 848 848 847 847 846 846 845 845 845 844 843
823 823 824 825 827 829 829 830 831 831 832 833 834 834 834 835 835 836 836 836 836 835 834 833 834 835 835 835 835 836 837 837 837 837 837 837 837 838 838 838 838 839 839 840 840 840 841 841 842 842 843 843 844 844 844 845 845 845 845 845 845 845 845 845 846 846 845 845 844 844 843 843 842 841
820 820 821 822 824 825 826 826 827 828 829 830 831 831 832 832 833 833 833 833 833 832 831 831 831 831 832 832 833 834 835 835 835 834 834 833 833 834 835 835 836 837 837 837 838 838 839 839 839 840 841 841 841 842 842 843 843 843 843 843 843 843 843 843 844 844 844 843 843 842 841 841 840 839
817 817 819 820 821 821 822 822 824 825 826 827 827 828 829 829 829 829 830 830 830 830 829 829 828 829 829 829 830 831 832 831 829 829 830 829 829 830 831 832 833 834 834 835 835 836 836 836 837 837 838 838 839 839 840 840 841 841 841 841 841 841 841 841 842 842 842 842 841 840 839 839 838 838
814 815 816 817 818 818 818 819 820 821 823 823 823 824 824 825 826 826 827 827 826 827 826 826 826 827 826 826 826 827 826 825 824 825 827 826 826 828 828 829 830 831 832 832 832 832 833 833 833 834 834 835 835 836 836 837 837 838 838 838 838 838 839 839 839 840 840 840 839 838 838 837 837 836
811 812 813 814 814 815 816 817 818 818 819 819 819 820 820 820 821 822 823 822 822 823 823 822 823 824 822 821 822 822 821 821 822 823 824 823 824 826 826 825 826 827 828 828 827 828 829 829 830 830 830 831 832 832 833 833 834 834 835 835 836 836 836 837 837 838 838 838 837 836 836 835 835 835
808 809 810 810 811 812 813 814 814 815 815 815 815 816 815 816 816 817 817 817 817 819 818 818 819 820 817 816 818 818 818 819 819 819 820 820 821 822 823 822 821 821 823 823 822 822 823 824 825 825 825 826 827 828 829 830 831 831 832 832 833 833 834 834 835 836 836 836 835 835 834 834 833 833
804 805 806 807 808 808 809 809 810 810 811 811 811 812 812 812 813 813 812 811 812 814 813 813 814 813 812 811 812 813 813 813 814 815 816 816 816 817 817 816 815 815 817 818 817 817 818 819 820 819 820 821 822 823 825 826 827 828 829 829 830 831 831 832 833 834 834 834 833 833 832 832 832 832
801 802 802 803 803 804 805 805 806 807 807 807 808 808 809 809 809 809 808 807 808 810 810 809 807 806 807 806 804 805 806 808 810 810 810 811 811 811 811 809 808 809 812 813 813 812 812 814 814 814 815 817 818 819 821 822 823 824 825 826 827 828 829 829 830 831 832 832 831 831 831 831 831 831
797 797 798 799 799 800 801 802 803 803 803 804 804 805 805 804 804 804 803 804 805 806 806 805 801 800 801 800 798 800 803 804 804 804 805 805 806 806 804 803 803 805 807 808 809 808 808 809 810 809 811 813 814 815 816 818 819 821 822 823 824 825 826 827 828 829 829 829 829 829 830 830 830 830
792 793 794 795 795 796 797 798 799 800 800 801 801 800 799 798 798 797 797 799 800 800 800 799 796 794 796 795 794 797 800 799 799 800 801 801 802 803 802 801 801 802 802 804 805 803 802 805 805 805 807 809 810 811 813 814 816 817 819 820 821 822 823 824 825 826 827 827 827 828 828 828 829 829
788 789 790 791 792 792 793 794 795 796 797 797 796 796 794 793 792 790 790 793 794 794 793 792 791 790 791 791 791 793 796 796 797 799 799 800 802 802 800 798 797 797 797 799 799 798 797 799 800 800 803 805 806 807 809 810 812 813 814 816 817 818 820 821 822 823 824 825 825 826 826 827 827 827
784 785 786 787 788 788 788 790 790 792 793 792 791 791 789 789 786 783 785 789 789 788 787 787 786 786 786 787 787 789 791 792 794 796 795 795 798 798 796 794 792 792 792 793 794 794 793 794 796 797 799 801 801 803 805 806 808 809 810 812 813 814 816 818 819 821 821 822 823 823 824 825 825 825
780 781 782 783 784 783 784 785 786 787 788 787 786 786 786 784 779 777 781 785 783 783 783 782 782 781 780 782 783 784 785 786 789 790 788 790 793 792 790 790 791 791 790 789 792 793 791 792 794 796 798 798 798 799 801 802 804 806 807 808 809 811 813 815 817 818 819 820 820 821 822 822 823 823
776 777 778 779 779 778 779 780 781 782 783 782 781 782 782 778 772 772 779 780 778 778 778 776 775 774 773 775 777 777 778 780 782 782 782 785 787 786 785 787 789 788 784 785 790 793 791 792 794 795 796 797 796 796 798 799 800 802 803 804 806 807 809 812 814 815 816 817 818 819 819 820 821 821
771 773 773 774 774 774 775 776 776 777 777 776 777 777 776 771 767 770 774 773 771 772 770 768 768 767 766 769 770 770 771 773 774 775 776 778 779 778 778 779 780 778 776 778 785 788 789 790 792 793 794 794 793 794 795 796 796 798 800 801 802 804 806 809 811 813 814 815 815 816 817 818 818 818
767 768 769 769 769 770 770 771 771 771 771 771 771 770 768 766 765 768 769 767 766 766 764 763 764 762 761 762 763 763 765 765 767 769 770 771 772 771 769 769 770 770 770 773 778 781 783 785 787 789 791 791 790 790 792 793 793 794 796 798 799 801 803 805 808 810 811 812 813 814 815 815 815 815
763 764 764 764 765 766 766 766 766 766 766 767 766 764 764 763 764 765 764 763 762 761 759 759 759 756 755 756 756 757 758 759 761 763 762 762 763 761 759 758 760 761 763 766 770 773 776 778 779 782 785 787 788 788 788 789 790 791 793 795 797 799 799 801 804 806 808 809 810 811 812 813 813 813
759 760 760 760 761 761 761 762 762 762 763 763 761 760 760 760 761 761 760 758 758 757 756 755 753 751 750 750 751 752 753 754 757 757 755 755 753 750 748 750 753 756 760 762 764 767 769 771 772 775 777 779 782 784 784 785 786 788 790 791 793 795 795 796 799 802 805 806 808 809 809 810 810 810
756 756 756 757 758 758 759 759 759 759 759 759 758 757 757 757 757 757 755 753 753 753 751 749 747 745 744 745 746 747 749 751 752 750 748 746 743 740 742 748 753 757 760 762 762 762 763 764 766 767 770 772 774 775 777 780 781 783 785 788 789 791 791 792 794 797 800 803 804 805 806 807 808 808
753 753 754 754 755 755 755 755 755 755 755 755 755 754 754 754 753 752 751 750 749 748 745 743 741 738 738 739 740 742 746 748 747 745 742 738 736 737 742 747 751 754 756 758 757 756 756 756 758 760 763 765 766 767 769 773 776 779 781 783 785 786 788 789 790 792 795 798 800 802 803 804 805 805
750 750 751 752 752 752 752 752 752 752 751 752 752 751 751 750 749 748 747 746 745 743 740 737 735 732 732 733 734 739 743 743 739 737 733 730 732 735 739 742 745 745 745 745 745 745 746 747 750 753 755 757 759 761 763 766 771 775 777 778 780 783 785 786 787 788 791 794 796 798 800 801 802 802
747 748 749 749 750 750 750 750 750 749 749 749 748 748 748 747 746 745 744 743 741 738 735 733 730 728 729 728 728 732 735 732 728 727 727 726 727 729 732 734 734 732 731 733 735 735 736 738 743 746 748 750 754 757 758 760 764 768 772 774 776 777 780 782 783 785 787 790 793 795 796 798 799 800
745 746 746 746 747 747 747 747 747 746 746 746 745 745 744 744 743 742 740 739 736 734 732 730 727 726 726 725 723 723 724 722 721 722 723 722 721 722 723 723 722 722 725 727 728 729 729 730 733 737 739 742 746 750 753 756 757 761 766 769 771 773 775 778 780 781 783 785 788 791 793 795 796 797
743 743 744 744 744 744 744 744 744 744 744 743 742 742 742 741 740 738 737 735 732 730 729 727 724 723 723 721 719 717 716 714 714 714 714 714 714 714 714 712 711 713 716 717 719 721 723 723 725 729 733 738 740 743 747 750 752 755 760 764 767 769 772 774 776 777 779 781 784 787 790 791 793 794
742 742 742 742 742 742 743 743 743 743 742 741 740 739 739 738 737 735 734 732 729 728 726 723 721 719 718 717 715 712 709 706 705 705 705 705 706 706 705 703 703 704 706 707 708 712 715 718 722 727 731 735 738 739 741 743 746 750 754 758 761 763 767 771 774 775 775 777 780 784 786 788 790 792
741 741 742 742 742 742 743 743 742 742 741 740 739 738 736 735 734 732 731 729 726 725 722 719 717 715 712 710 709 706 703 700 698 698 697 697 697 696 695 693 692 694 697 699 701 704 708 712 717 722 728 732 735 738 739 739 740 744 749 754 756 758 762 767 771 773 773 774 777 780 782 785 787 789
740 741 741 742 742 742 742 742 742 741 741 740 739 738 736 734 731 730 728 726 724 722 719 715 713 710 707 704 701 699 697 693 691 689 689 688 686 685 683 681 681 684 687 690 693 697 701 702 704 710 719 726 730 733 735 735 735 738 743 748 752 755 758 762 767 769 770 771 774 776 779 781 784 786
740 741 742 742 742 742 742 742 741 741 740 739 738 737 735 733 730 728 725 723 721 718 715 712 708 704 701 698 695 692 689 686 683 681 679 678 677 674 672 671 671 674 678 681 686 690 693 695 697 701 709 718 723 725 728 731 733 735 738 743 747 751 755 759 762 765 766 768 771 773 776 778 781 783
740 741 741 742 742 741 741 741 741 740 739 737 736 734 733 730 728 725 723 720 718 714 711 708 703 699 696 693 689 685 681 679 676 673 670 670 668 665 663 662 663 666 669 673 677 681 684 687 690 693 698 706 712 716 721 726 728 730 734 739 743 747 751 755 758 761 763 765 768 771 773 776 778 780
740 740 740 741 741 741 740 740 739 738 736 735 733 732 730 728 726 723 720 717 714 711 707 703 698 694 690 686 682 678 674 671 669 666 664 662 661 659 657 658 659 662 664 666 669 673 676 679 681 682 685 689 694 699 707 714 719 723 729 735 740 743 747 751 755 757 759 762 765 768 771 773 775 777
740 740 740 740 740 739 738 737 736 735 735 734 733 731 730 728 725 722 719 716 712 708 703 698 693 688 683 678 674 670 666 663 661 660 659 657 655 653 652 653 654 654 655 657 660 664 667 668 669 672 677 683 689 696 705 712 718 723 728 733 737 741 745 749 751 754 757 760 763 766 768 770 772 774
740 740 740 739 738 738 737 736 736 735 735 734 733 731 730 728 725 721 719 715 711 707 701 695 688 682 676 671 667 664 660 657 656 655 654 652 650 648 647 647 648 649 651 654 656 656 656 659 664 671 677 681 689 699 708 714 718 723 727 731 735 740 745 748 750 752 754 758 761 763 765 767 769 771
740 739 739 738 738 737 737 737 736 736 735 734 733 731 729 727 724 721 718 715 711 706 700 693 687 680 673 667 662 659 656 653 651 650 650 648 647 645 644 644 644 644 646 648 649 651 654 660 669 676 679 681 688 696 704 710 716 721 725 729 734 739 743 745 748 751 753 756 758 760 762 765 767 769
739 739 739 738 738 738 738 737 737 736 735 734 733 731 729 726 723 721 718 714 709 705 699 694 687 680 672 665 660 656 652 650 647 646 645 644 643 642 643 643 643 644 645 646 649 653 658 663 670 675 679 685 692 697 701 709 716 721 725 730 735 739 741 744 747 750 752 754 756 758 759 761 764 765
739 739 739 739 739 738 738 737 737 736 735 734 733 731 729 726 724 721 717 713 709 705 700 695 689 681 674 667 662 657 652 648 645 643 641 641 640 640 639 640 642 645 650 656 662 666 665 667 673 679 685 693 698 700 704 711 718 722 727 733 737 738 740 743 746 748 750 752 753 755 757 759 761 762
740 740 739 739 739 739 738 737 736 736 735 734 732 731 729 726 724 720 717 714 710 706 701 697 692 686 678 670 665 661 656 651 648 644 642 642 642 642 641 640 641 645 652 660 670 678 680 681 685 690 695 700 704 706 709 715 720 724 729 734 737 738 740 743 745 746 748 749 751 753 755 756 758 760